Location: Archamps
(46.1365°N, 6.1329°E)
Time: 08:45:41
(UTC+00:00)

CZ-6A DEB - Pass Details

Date: 29 February 2024
Orbit: 823 x 884 km, 98.8° (Epoch: 12 April)

Event Time Altitude Azimuth Distance (km) Brightness Sun altitude
Rises 05:17:54 0° 20° (NNE) 3,394 ? -10.8°
Reaches altitude 10° 05:20:26 10° 28° (NNE) 2,448 ? -10.4°
Maximum altitude 05:25:30 40° 98° (E) 1,205 ? -9.5°
Drops below altitude 10° 05:30:30 10° 167° (SSE) 2,416 ? -8.6°
Sets 05:32:59 0° 175° (S) 3,344 ? -8.2°
